Overview Statistics Trail Chart Weather Telemetry Raw packets
 

This is the latest recevied weather packets stored in our database for station/object N0HOT. If no packets are shown the sender has not sent any weather packets the latest 10 day(s).

<< 72 73 74 75 76 77 78 >>
Time Temp. Humidity Pressure Rain* Wind** Luminosity Snow
1788138118 23.33° C 75% 1010.8 hPa 0 mm - 0 W/m² -
1788137818 23.33° C 75% 1010.8 hPa 0 mm - 0 W/m² -
1788137513 23.33° C 76% 1010.8 hPa 0 mm - 0 W/m² -
1788137208 23.33° C 76% 1010.8 hPa 0 mm - 1 W/m² -
1788136904 23.33° C 76% 1010.8 hPa 0 mm - 1 W/m² -
1788136600 23.33° C 76% 1010.8 hPa 0 mm - 1 W/m² -
1788136296 23.89° C 77% 1010.8 hPa 0 mm - 3 W/m² -
1788135994 23.89° C 77% 1010.8 hPa 0 mm - 3 W/m² -
1788135689 23.89° C 77% 1011.1 hPa 0 mm - 6 W/m² -
1788135386 23.89° C 77% 1010.8 hPa 0 mm - 7 W/m² -
1788135081 23.89° C 77% 1010.8 hPa 0 mm - 11 W/m² -
1788134778 24.44° C 77% 1010.8 hPa 0 mm - 16 W/m² -
1788134477 24.44° C 77% 1010.5 hPa 0 mm - 13 W/m² -
1788134176 24.44° C 78% 1010.8 hPa 0 mm - 13 W/m² -
1788133871 25° C 78% 1010.5 hPa 0 mm - 13 W/m² -
1788133566 25° C 78% 1010.5 hPa 0 mm - 17 W/m² -
1788133261 25° C 77% 1010.1 hPa 0 mm - 22 W/m² -
1788132956 25° C 76% 1010.1 hPa 0 mm - 24 W/m² -
1788132652 25° C 76% 1009.8 hPa 0 mm - 20 W/m² -
1788132348 25.56° C 75% 1009.8 hPa 0 mm - 28 W/m² -
1788132044 25.56° C 75% 1010.1 hPa 0 mm - 30 W/m² -
1788131740 25.56° C 74% 1010.1 hPa 0 mm - 27 W/m² -
1788131438 26.11° C 74% 1010.5 hPa 0 mm - 42 W/m² -
1788131134 26.11° C 72% 1010.1 hPa 0 mm - 47 W/m² -
1788130829 26.11° C 71% 1010.1 hPa 0 mm - 40 W/m² -

* Rain latest hour (hover to see other rain measurements)
** Current wind speed in m/s (hover to see current wind gust speed)